Change the Weather History Date:

Monday, June 16, 2014

  Actual Average Record
Temperature  
Mean Temperature 78 °F -  
Max Temperature 86 °F 90 °F 96 °F (1953)
Min Temperature 70 °F 68 °F 60 °F (1969)
Cooling Degree Days 13    
Growing Degree Days 28 (Base 50)    
Moisture  
Dew Point 71 °F    
Average Humidity 82    
Maximum Humidity 97    
Minimum Humidity 63    
Precipitation  
Precipitation 0.00 in - - ()
Sea Level Pressure  
Sea Level Pressure 30.12 in    
Wind  
Wind Speed 3 mph (SSE)    
Max Wind Speed 12 mph    
Max Gust Speed -    
Visibility 8 miles    
Events Thunderstorm    
Averages and records for this station are not official NWS values.
T = Trace of Precipitation, MM = Missing Value Source: NWS Daily Summary

Daily Weather History Graph

Daily Weather History Graph

Search for Another Location

Airport or City:

Trip Planner

Search our weather history database for the weather conditions in past years. The results will help you decide how hot, cold, wet, or windy it might be!

Date:

Astronomy

Jun. 16, 2014 Rise Set
Actual Time 5:57 AM CDT 8:07 PM CDT
Civil Twilight 5:29 AM CDT 8:35 PM CDT
Nautical Twilight 4:55 AM CDT 9:09 PM CDT
Astronomical Twilight 4:19 AM CDT 9:46 PM CDT
Moon 11:14 PM CDT (6/16) 9:48 AM CDT (6/16)
Length of Visible Light 15h 05m
Length of Day
14h 10m
Waning Gibbous, 83% of the Moon is Illuminated
Jun 16
Waning Gibbous
Jun 19
Last Quarter
Jun 27
New
Jul 5
First Quarter
Jul 12
Full

Hourly Weather History & Observations

Time (CDT) Temp. Heat Index Dew Point Humidity Pressure Visibility Wind Dir Wind Speed Gust Speed Precip Events Conditions
12:53 AM 73.0 °F - 70.0 °F 90% 30.07 in 10.0 mi South 3.5 mph - N/A   Clear
1:53 AM 73.0 °F - 70.0 °F 90% 30.07 in 10.0 mi Calm Calm - N/A   Clear
2:42 AM 71.1 °F - 69.1 °F 93% 30.09 in 7.0 mi Calm Calm - N/A   Scattered Clouds
2:53 AM 71.1 °F - 69.1 °F 93% 30.07 in 6.0 mi Calm Calm - N/A   Partly Cloudy
3:39 AM 71.1 °F - 70.0 °F 96% 30.09 in 4.0 mi Calm Calm - N/A   Partly Cloudy
3:53 AM 71.1 °F - 69.1 °F 93% 30.08 in 5.0 mi SE 3.5 mph - N/A   Partly Cloudy
4:53 AM 72.0 °F - 70.0 °F 93% 30.10 in 10.0 mi Calm Calm - N/A   Clear
5:31 AM 71.1 °F - 69.1 °F 93% 30.13 in 5.0 mi Calm Calm - N/A   Scattered Clouds
5:34 AM 71.1 °F - 69.1 °F 93% 30.13 in 2.5 mi East 3.5 mph - N/A   Mostly Cloudy
5:39 AM 71.1 °F - 69.1 °F 93% 30.13 in 0.8 mi Calm Calm - N/A   Mist
5:53 AM 71.1 °F - 69.1 °F 93% 30.12 in 0.8 mi Calm Calm - N/A   Mist
6:12 AM 70.0 °F - 69.1 °F 97% 30.14 in 1.5 mi Calm Calm - N/A   Overcast
6:21 AM 71.1 °F - 69.1 °F 93% 30.14 in 3.0 mi Calm Calm - N/A   Overcast
6:50 AM 71.6 °F - 69.8 °F 94% 30.15 in 8.0 mi Calm Calm - N/A   Mostly Cloudy
6:53 AM 71.1 °F - 69.1 °F 93% 30.14 in 9.0 mi Calm Calm - N/A   Mostly Cloudy
7:53 AM 73.9 °F - 72.0 °F 93% 30.16 in 10.0 mi Calm Calm - N/A   Overcast
8:29 AM 77.0 °F - 73.0 °F 88% 30.18 in 10.0 mi SE 4.6 mph - N/A   Scattered Clouds
8:53 AM 79.0 °F - 73.0 °F 82% 30.16 in 10.0 mi South 4.6 mph - N/A   Scattered Clouds
9:16 AM 79.0 °F - 73.0 °F 82% 30.18 in 10.0 mi SSE 8.1 mph - N/A   Mostly Cloudy
9:53 AM 81.0 °F 85.8 °F 73.0 °F 77% 30.16 in 10.0 mi South 8.1 mph - N/A   Mostly Cloudy
10:04 AM 82.0 °F 87.4 °F 73.0 °F 74% 30.18 in 10.0 mi South 8.1 mph - N/A   Partly Cloudy
10:53 AM 84.0 °F 90.2 °F 73.0 °F 69% 30.16 in 10.0 mi SSE 10.4 mph - N/A   Scattered Clouds
11:12 AM 84.9 °F 90.7 °F 72.0 °F 65% 30.17 in 10.0 mi Variable 6.9 mph - N/A   Mostly Cloudy
11:24 AM 82.9 °F 87.0 °F 70.0 °F 65% 30.17 in 10.0 mi SSW 8.1 mph - N/A   Scattered Clouds
11:53 AM 82.9 °F 87.5 °F 71.1 °F 67% 30.15 in 10.0 mi South 5.8 mph - N/A   Scattered Clouds
12:53 PM 82.9 °F 87.5 °F 71.1 °F 67% 30.14 in 10.0 mi South 4.6 mph - N/A   Mostly Cloudy
1:04 PM 82.9 °F 86.5 °F 69.1 °F 63% 30.15 in 10.0 mi Calm Calm - N/A Thunderstorm Mostly Cloudy
1:53 PM 82.0 °F 85.9 °F 70.0 °F 67% 30.13 in 10.0 mi ESE 3.5 mph - N/A Thunderstorm Thunderstorm
2:53 PM 84.0 °F 89.6 °F 72.0 °F 67% 30.11 in 10.0 mi SE 6.9 mph - N/A   Partly Cloudy
3:53 PM 86.0 °F 93.0 °F 73.0 °F 65% 30.08 in 10.0 mi SSE 11.5 mph - N/A   Partly Cloudy
4:53 PM 84.9 °F 90.1 °F 71.1 °F 63% 30.08 in 10.0 mi South 5.8 mph - N/A   Partly Cloudy
5:53 PM 84.0 °F 89.6 °F 72.0 °F 67% 30.07 in 10.0 mi SSE 5.8 mph - N/A   Clear
6:53 PM 82.9 °F 88.8 °F 73.0 °F 72% 30.08 in 10.0 mi SSW 4.6 mph - N/A   Clear
7:53 PM 79.0 °F - 70.0 °F 74% 30.08 in 10.0 mi WSW 3.5 mph - N/A   Clear
8:53 PM 75.0 °F - 70.0 °F 84% 30.07 in 10.0 mi Calm Calm - N/A   Clear
9:53 PM 73.9 °F - 70.0 °F 87% 30.10 in 10.0 mi Calm Calm - N/A   Partly Cloudy
10:53 PM 73.9 °F - 71.1 °F 91% 30.12 in 9.0 mi SE 3.5 mph - N/A   Clear
11:53 PM 73.0 °F - 70.0 °F 90% 30.12 in 10.0 mi Calm Calm - N/A   Clear